Regional Weather Roundup
Issued by NWS

Home | Current Version | Previous Version | Graphics & Text | Print | Product List | Glossary Off
Versions: 1 2 3 4 5 6 7 8 9 10 11 12 13 14 15 16 17 18 19 20 21 22 23 24 25 26 27 28 29 30 31 32 33 34 35 36 37 38 39 40 41 42 43 44 45 46 47 48 49 50

000
ASUS43 KTOP 101108
RWRKS

WEATHER ROUNDUP FOR KANSAS
NATIONAL WEATHER SERVICE GOODLAND KS
500 AM CST SAT DEC 10 2016

NOTE:  "FAIR" INDICATES FEW OR NO CLOUDS BELOW 12,000 FEET WITH NO
SIGNIFICANT WEATHER AND/OR OBSTRUCTIONS TO VISIBILITY.

KSZ001>006-013>018-027>032-041>047-101200-
NORTHWEST KANSAS

CITY           SKY/WX    TMP DP  RH WIND       PRES   REMARKS
GOODLAND       CLOUDY    19  17  92 S8        30.06S
HAYS           CLOUDY    20  15  81 SE6       30.27S
HILL CITY      CLOUDY    21  14  74 SE6       30.23F
RUSSELL        CLOUDY    23  15  71 S12       30.26F WCI  12
$$

KSZ061>065-074>080-084>089-101200-
SOUTHWEST KANSAS

CITY           SKY/WX    TMP DP  RH WIND       PRES   REMARKS
DODGE CITY     CLOUDY    18  14  84 S8        30.20F
ELKHART          N/A     22  15  75 S5          N/A
GARDEN CITY    CLOUDY    16  12  84 S6        30.17F
GREAT BEND     CLEAR     20  14  77 S10       30.28F WCI   9
LIBERAL        CLOUDY    19  12  73 E7        30.15F
PRATT          CLEAR     16  10  77 SE6       30.30F
$$

KSZ066>073-081>083-090>101-101200-
SOUTHEAST KANSAS

CITY           SKY/WX    TMP DP  RH WIND       PRES   REMARKS
CHANUTE        CLOUDY    29  19  66 SE7       30.43F
COFFEYVILLE    CLOUDY    32  22  66 E5        30.46F
HUTCHINSON     PTCLDY    26  15  63 SE8       30.34F
MEDICINE LODGE   N/A     19  13  77 SE9       30.32F
NEWTON         CLEAR     21  15  78 SE10      30.35F WCI  10
PARSONS        CLOUDY    32  20  61 SE3       30.46F
WICHITA INTL   CLOUDY    22  15  75 SE9       30.37F
WICHITA JABRA  CLOUDY    21  14  74 SE7       30.37F
WICHITA MCCONL CLOUDY    22  14  71 S8        30.37F
WINFIELD       CLEAR     24  16  71 E6        30.40F
$$

KSZ007>012-019>026-033>040-048>060-102>105-101200-
NORTHEAST KANSAS

CITY           SKY/WX    TMP DP  RH WIND       PRES   REMARKS
CONCORDIA      CLOUDY    22  18  85 E7        30.35F
EMPORIA        CLOUDY    23  17  78 SE6       30.41F
LAWRENCE       CLOUDY    25  19  78 E3        30.46F
MANHATTAN      CLOUDY    27  17  66 E3        30.41F
MARYSVILLE     CLOUDY    27  18  69 SE5       30.40F
OLATHE IND     CLOUDY    26  16  65 SE6       30.45F
OLATHE EXE     CLOUDY    24  14  65 SE3       30.45F
SALINA         CLOUDY    25  16  68 SE7       30.36F
TOPEKA BILLARD CLOUDY    26  19  74 E3        30.45F
TOPEKA FORBES  CLOUDY    25  18  74 SE3       30.43F
$$




USA.gov is the U.S. government's official web portal to all federal, state and local government web resources and services.